www.pogodaiklimat.ru
ПОГОДА в Потстауне
Время
и дата
00:54 27.09
01:54 27.09
02:54 27.09
03:54 27.09
04:54 27.09
05:54 27.09
06:54 27.09
07:54 27.09
08:54 27.09
09:54 27.09
10:54 27.09
11:54 27.09
12:54 27.09
13:54 27.09
14:54 27.09
15:54 27.09
16:54 27.09
17:54 27.09
18:54 27.09
19:54 27.09
20:54 27.09
21:54 27.09
22:54 27.09
23:54 27.09
00:54 28.09
01:54 28.09
02:54 28.09
03:54 28.09
04:54 28.09
05:54 28.09
06:54 28.09
07:44 28.09
07:54 28.09
08:01 28.09
09:54 28.09
10:54 28.09
11:54 28.09
12:54 28.09
13:54 28.09
14:54 28.09
15:54 28.09
16:54 28.09
17:54 28.09
18:54 28.09
19:54 28.09
20:54 28.09
21:54 28.09
23:54 28.09
Ветер
(напр.,м/с)
Видим. Явления Облачность Т
(С)
Тd
(С)
f
(%)
Тe
(С)
Тes
(С)
Комфортность P
(гПа)
Po
(гПа)
Тmin
(С)
Tmax
(С)
R
(мм)
R24
(мм)
S
(см)
штиль 0 16 км 10/0 3300 m
[Ac]
+11.1 +8.9 86 +10 +10 1010.4 1000.2 +10.0 +17.8
штиль 0 16 км ясно +11.1 +7.8 80 +11 +11 1010.1 999.9
штиль 0 16 км ясно +10.0 +7.2 83 +9 +9 1009.9 999.5
Ю 2 16 км ясно +11.1 +7.8 80 +10 +10 1010.1 999.9
ЮЗ 2 16 км ясно +11.7 +6.7 71 +11 +11 1010.1 999.9
З 2 16 км ясно +11.7 +6.1 68 +11 +11 1010.4 1000.2
ЮЗ 2 16 км ясно +12.2 +6.1 66 +11 +11 1011.0 1000.5 +10.0 +12.8
ЮЗ 3 16 км ясно +13.9 +7.2 64 +13 +13 1011.7 1001.2
З 4 16 км ясно +15.0 +7.2 60 +14 +16 1012.3 1001.9
З 4 16 км ясно +16.1 +7.2 56 +15 +19 1012.5 1002.2
нст 2 16 км ясно +16.7 +6.7 52 +17 +26 1012.5 1002.2
нст 3 16 км 2/2 1470 м +17.8 +6.7 48 +18 +25 1012.5 1002.2
нст 3 16 км ясно +18.3 +6.1 45 +19 +29 1012.2 1001.9 +12.2 +18.9
ЮЗ 4 16 км 5/0 2700 m
[Ac]
+17.8 +5.6 45 +18 +23 1012.0 1001.6
нст 3 16 км 2/0 2550 m
[Ac]
+17.8 +5.0 43 +18 +24 1012.1 1001.9
З 4 16 км ясно +18.3 +4.4 40 +18 +22 1012.6 1002.2
З 4 16 км ясно +17.8 +5.0 43 +18 +20 1013.2 1002.9
ЮЗ 2 16 км 2/0 3000 m
[Ac]
+16.1 +5.0 48 +16 +17 1013.7 1003.2
ЮЗ 2 16 км 8/0 3300 m
[Ac]
+14.4 +6.1 57 +14 +14 1014.4 1004.2 +14.4 +19.4
штиль 0 16 км ясно +12.2 +5.6 64 +12 +12 1015.2 1004.9
штиль 0 16 км ясно +12.2 +5.6 64 +12 +12 1016.0 1005.6
З 2 16 км ясно +11.7 +5.6 66 +11 +11 1016.6 1006.2
З 2 16 км ясно +11.1 +5.6 69 +10 +10 1017.1 1006.9
З 2 16 км ясно +10.6 +5.6 71 +9 +9 1017.3 1006.9
штиль 0 16 км ясно +8.9 +5.6 80 +8 +8 1017.6 1007.3 +8.9 +15.0
штиль 0 16 км ясно +9.4 +5.6 77 +9 +9 1017.7 1007.3
штиль 0 16 км ясно +6.7 +5.0 89 +6 +6 1018.1 1007.6
штиль 0 16 км ясно +6.7 +5.0 89 +6 +6 1018.3 1007.9
штиль 0 16 км ясно +6.7 +5.6 93 +6 +6 1018.7 1008.3
СЗ 2 16 км ясно +6.7 +5.0 89 +4 +4 1019.3 1008.9
штиль 0 16 км ясно +8.3 +6.1 86 +7 +7 1020.4 1009.9 +6.7 +9.4
нст 3 16 км 8/8 690 м +10.6 +6.7 77 +9 +9 1010.3
З 2 16 км 8/8 690 м +11.1 +6.7 74 +10 +10 1020.7 1010.3
СЗ 4 16 км 5/5 690 м +11.1 +6.7 74 +9 +10 1010.3
СЗ 3 16 км ясно +15.0 +8.3 64 +14 +19 1021.3 1010.9
С 3 16 км 2/2 990 м +16.7 +8.3 58 +17 +22 1021.5 1010.9
СЗ 3 16 км 5/5 1020 м +17.8 +9.4 58 +18 +22 1021.2 1010.9
СЗ 4 16 км 5/5 1350 м +18.9 +8.9 52 +19 +23 1020.9 1010.6 +8.3 +18.9
СЗ 4 16 км 10/10 1440 м +17.8 +7.8 52 +18 +18 1021.0 1010.6
СЗ 3 16 км 10/0 2100 m
[Ac]
+18.3 +8.3 52 +19 +21 1021.2 1010.9
СЗ 4 16 км 5/0 2250 m
[Ac]
+19.4 +8.9 51 +20 +23 1021.4 1010.9
СЗ 3 16 км 5/0 2400 m
[Ac]
+18.3 +8.3 52 +19 +20 1021.9 1011.6
СЗ 2 16 км 8/0 2550 m
[Ac]
+16.1 +8.9 62 +16 +17 1022.8 1012.3
С 3 16 км 10/0 2700 m
[Ac]
+16.1 +8.9 62 +16 +16 1023.6 1012.9 +15.0 +20.0
С 5 16 км 10/0 2700 m
[Ac]
+15.0 +9.4 69 +14 +14 1024.2 1013.6
С 3 16 км 10/0 2850 m
[Ac]
+14.4 +9.4 72 +14 +14 1024.7 1014.3
С 4 16 км 2/0 2700 m
[Ac]
+13.9 +8.9 72 +12 +12 1025.3 1015.0
СЗ 2 16 км ясно +11.1 +8.3 83 +10 +10 1026.0 1015.6
Местоположение метеостанции Pottstown Limerick Airport: широта 40.2380 долгота -75.5549 высота над уровнем моря 88 м.
В архиве по умолчанию представлена погода в Потстауне за последние 1-2 суток. Обновление информации о фактической погоде в базе происходит ежечасно! Архивные данные за месяц целиком и за предыдущие месяцы Вы можете получить, выбрав интересующий диапазон дат из раскрывающегося списка и нажав кнопку "Ввод!".
Внимание! Архив погоды МЕТАР в базе сайта по станциям, не включенным в климатический монитор, хранится не более 60 дней. Нет смысла пытаться выбрать более раннюю дату.
*Определитесь, кто Вы:
Внимание! Время в таблицах - местное (без учета летнего времени). Для получения всемирного времени необходимо вычесть поправку, которая равна -5 ч.
Смотрите также архив погоды в соседних городах и на ближайших метеорологических станциях:
Партнеры нашего сайта:      
Пояснения к столбцам:
  • Ветер - указаны скорость ветра в м/с - средняя за 10 мин, порывы в срок и между сроками (в фигурных скобках) и направление, откуда дует ветер: С - северный,
  • СВ - северо-восточный, В - восточный, ЮВ - юго-восточный, Ю - южный, ЮЗ - юго-западный, З - западный, СЗ - северо-западный.
  • Видимость - горизонтальная дальность видимости в метрах или километрах. При видимости от 1 до 10 км при отсутствии осадков обычно наблюдается дымка, при ухудшении видимости до 1 км и менее - туман. В сухую погоду видимость может ухудшаться дымом, пылью или мглою.
  • Явления - указаны атмосферные явления, наблюдавшиеся в срок или в последний час перед сроком; фигурными скобками обозначены явления, наблюдавшиеся между сроками (за 1-3 часа до срока); квадратными скобками обозначены град или гололедные отложения с указанием их диаметра в мм.
  • Облачность - указаны через наклонную черту общая и нижняя облачность в баллах и высота нижней границы облаков в метрах; квадратными скобками обозначены формы облаков: Ci - перистые, Cs - перисто-слоистые, Cc - перисто-кучевые, Ac - высококучевые, As - высокослоистые, Sc - слоисто-кучевые, Ns - слоисто-дождевые, Cu - кучевые, Cb - кучево-дождевые. Подробнее классификацию облаков см. в Атласе облаков (PDF).
  • T - Температура воздуха - температура, измеренная на высоте 2 м над землей.
  • Td - Температура точки росы - температура, при понижении до которой содержащийся в воздухе водяной пар достигнет насыщения.
  • f - Относительная влажность воздуха - влажноcть воздуха, измеренная на высоте 2 м над землей.
  • Te - Эффективная температура - температура, которую ощущает одетый по сезону человек в тени. Характеристика душности погоды. При расчете учитывается влияние влажности воздуха и скорости ветра на теплоощущения человека.
  • Tes - Эффективная температура на солнце - температура, которую ощущает человек, с поправкой на солнечный нагрев. Характеристика знойности погоды. Зависит от высоты солнца над горизонтом, облачности и скорости ветра. Ночью, в пасмурную погоду, а также при ветре 12 м/с и более поправка равна нулю.
  • P - Атмосферное давление - приведенное к уровню моря атмосферное давление.
  • Po - Атмосферное давление - измеренное на уровне метеостанции атмосферное давление.
  • Tmin - Минимальная температура - минимум температуры воздуха на высоте 2 м над землей.
  • Tmax - Максимальная температура - максимум температуры воздуха на высоте 2 м над землей.
  • R - Количество осадков - Количество выпавших осадков за период времени, мм. При наведении курсора мыши на число - период времени, за который выпало указанное количество осадков.
  • R24 - Количество осадков - Количество выпавших осадков за 24 часа, мм.
  • S - Снежный покров - Высота снежного покрова, см. При наведении курсора мыши на число - состояние снежного покрова и степень покрытия местности в баллах.